#timestamp,LO_Frequency,Hit,StdDev 
1570842015.2,286046996.7,N
1570842035.0,286046996.6,N
1570842035.9,286046996.6,N
1570842055.9,286046998.7,N
1570842075.7,286046999.2,N
1570842095.6,286046997.9,N
1570842115.4,286046996.2,N
1570842135.3,286046997.5,N
1570842155.1,286046999.6,N
1570842156.0,286046999.6,N
1570842175.8,286046997.2,N
1570842195.7,286046999.4,N
1570842215.5,286046999.1,N
1570842235.3,286046998.9,N
1570842255.2,286046997.5,N
1570842275.0,286046995.3,N
1570842275.9,286046995.3,N
1570842295.8,286046996.9,N
1570842315.6,286047001.2,N
1570842335.4,286046998.2,N
1570842355.3,286046998.8,N
1570842375.1,286047000.8,N
1570842395.9,286046997.0,N
1570842415.7,286046998.8,N
1570842435.5,286046998.6,N
1570842455.4,286047000.9,N
1570842475.2,286047001.2,N
1570842495.0,286046999.5,N
1570842496.0,286046999.5,N
1570842515.8,286046996.7,N
1570842535.6,286046999.1,N
1570842555.5,286046998.2,N
1570842575.3,286047002.6,N
1570842595.1,286047002.1,N
1570842615.9,286047000.2,N
1570842635.7,286047000.4,N
1570842655.6,286046999.7,N
1570842675.4,286046999.8,N
1570842695.2,286047001.2,N
1570842715.1,286046999.9,N
1570842716.0,286046999.9,N
1570842735.8,286047000.3,N
1570842755.7,286047001.2,N
1570842775.5,286046998.3,N
1570842795.3,286047000.4,N
1570842815.2,286046998.1,N
1570842835.0,286047001.1,N
1570842835.9,286047001.1,N
1570842855.7,286047000.6,N
1570842875.6,286046998.8,N
1570842895.4,286046998.7,N
1570842915.3,286047001.0,N
1570842935.1,286047000.2,N
1570842936.0,286047000.2,N
1570842955.8,286047001.4,N
1570842975.7,286047002.3,N
1570842995.5,286046999.7,N
1570843015.3,286047001.9,N
1570843035.2,286047000.5,N
1570843055.0,286047001.9,N
1570843055.9,286047001.9,N
1570843075.8,286047002.8,N
1570843095.6,286047002.5,N
1570843115.4,286047000.4,N
1570843135.3,286047000.6,N
1570843155.1,286047001.2,N
1570843175.9,286047000.9,N
1570843195.7,286047000.3,N
1570843215.5,286046999.6,N
1570843235.4,286046999.4,N
1570843255.2,286046999.2,N
1570843275.0,286046996.9,N
1570843275.9,286046996.9,N
1570843295.8,286046999.2,N
1570843315.6,286046998.9,N
1570843335.5,286047000.5,N
1570843355.3,286046999.7,N
1570843375.1,286046999.7,N
1570843395.9,286046999.8,N
1570843415.7,286046998.3,N
1570843435.6,286046999.1,N
1570843455.4,286047000.9,N
1570843475.2,286047003.6,N
1570843495.1,286047002.2,N
1570843496.0,286047002.2,N
1570843515.8,286047004.0,N
1570843535.7,286047003.8,N
1570843555.5,286047000.1,N
1570843575.3,286046998.2,N
1570843595.2,286047001.2,N
1570843615.0,286047000.4,N
1570843615.9,286047000.4,N
1570843635.7,286046998.2,N
1570843655.6,286046996.7,N
1570843675.4,286046997.6,N
1570843695.3,286046999.4,N
1570843715.1,286046997.0,N
1570843735.8,286046997.3,N
1570843755.7,286047001.1,N
1570843775.5,286047000.5,N
1570843795.4,286047002.3,N
1570843815.2,286047002.4,N
1570843835.0,286047000.2,N
1570843835.9,286047000.2,N
1570843855.8,286046998.1,N
1570843875.6,286046998.5,N
1570843895.5,286047000.7,N
1570843915.3,286047001.1,N
1570843935.1,286046998.4,N
1570843955.9,286046999.5,N
1570843975.7,286046999.6,N
1570843995.5,286046998.7,N
1570844015.4,286046999.4,N
1570844035.2,286046999.4,N
1570844055.1,286047000.5,N
1570844056.0,286047000.5,N
1570844075.8,286047000.8,N
1570844095.6,286046998.2,N
1570844115.5,286046998.3,N
1570844135.3,286046999.5,N
1570844155.1,286046998.1,N
1570844175.9,286047002.7,N
1570844195.7,286046999.8,N
1570844215.6,286046998.2,N
1570844235.4,286047000.1,N
1570844255.2,286047000.4,N
1570844275.1,286047000.7,N
1570844276.0,286047000.7,N
1570844295.8,286047000.6,N
1570844315.6,286047000.1,N
1570844335.5,286047000.5,N
1570844355.3,286047000.1,N
1570844375.2,286047002.4,N
1570844395.0,286047002.6,N
1570844395.9,286047002.6,N
1570844415.7,286047001.7,N
1570844435.6,286047003.0,N
1570844455.4,286047004.9,Y
1570844475.3,286047004.4,P
1570844495.1,286047000.1,N
1570844515.8,286046999.8,N
1570844535.7,286047002.2,N
1570844555.5,286047002.1,N
1570844575.4,286047002.6,N
1570844595.2,286047003.6,N
1570844615.0,286047004.9,Y
1570844615.9,286047004.9,P
1570844635.8,286047005.8,P
1570844655.6,286047001.4,N
1570844675.5,286047003.8,N
1570844695.3,286047007.2,Y
1570844715.1,286047000.0,P
1570844735.9,286046998.0,N
1570844755.7,286046997.7,N
1570844775.6,286046995.0,N
1570844795.4,286046995.0,N
1570844815.2,286046995.6,N
1570844835.1,286046995.2,N
1570844836.0,286046995.2,N
1570844855.8,286046995.6,N
1570844875.6,286046995.5,N
1570844895.5,286046997.3,N
1570844915.3,286046995.2,N
1570844935.2,286046998.0,N
1570844955.9,286046997.5,N
1570844975.7,286046997.4,N
1570844995.6,286046995.4,N
1570845015.4,286046993.3,Y
1570845035.3,286046997.5,P
1570845055.1,286046997.1,P
1570845056.0,286046997.1,P
1570845075.8,286046996.5,Y
1570845095.7,286047001.9,P
1570845115.5,286047006.0,N
1570845135.3,286047003.1,N
1570845155.2,286047004.7,N
1570845175.0,286047003.7,N
1570845175.9,286047003.7,N
1570845195.8,286047003.8,N
1570845215.6,286047003.5,N
1570845235.4,286047005.9,N
1570845255.3,286047005.2,N
1570845275.1,286047007.1,Y
1570845295.9,286047001.3,P
1570845315.1,286047004.3,P
1570845335.8,286047003.7,N
1570845355.7,286047004.0,Y
1570845375.5,286046999.0,P
1570845395.4,286046998.3,N
1570845415.2,286046998.7,N
1570845435.0,286047001.1,N
1570845436.0,286047001.1,N
1570845455.8,286046999.9,N
1570845475.6,286046999.9,N
1570845495.5,286047001.0,N
1570845515.3,286047001.1,N
1570845535.1,286047000.3,N
1570845555.9,286046999.8,N
1570845575.7,286047002.0,N
1570845595.6,286047002.4,N
